Theta_e
317 318 319 319 321 322 323 324 323 323 322 322 322 322 322 323 323 323 320 317 315 315 314 315 315 315 315 316 317 319 315 317 319 318 318 317 317 318 318 318 318 318 318 318 319
316 317 318 319 320 321 322 323 323 323 323 323 323 322 322 322 323 319 318 315 314 313 314 314 314 314 315 316 317 316 314 317 317 317 316 316 317 316 316 316 316 317 317 318 318
318 318 319 319 320 320 321 322 323 323 324 324 323 323 322 322 322 315 314 313 313 313 313 314 314 314 315 315 315 315 315 316 318 317 317 316 316 316 315 314 315 316 316 316 317
322 320 320 320 320 321 322 323 324 324 324 324 323 322 322 321 321 318 319 315 313 312 313 313 313 314 314 314 315 315 316 316 317 317 316 315 315 315 315 315 315 315 315 316 317
325 324 323 322 322 323 324 325 324 324 324 323 322 320 319 318 320 319 313 312 311 311 312 313 313 314 313 313 313 313 314 315 315 315 315 315 314 314 314 315 315 314 315 315 316
326 326 325 324 323 324 325 324 324 324 323 322 321 320 313 314 316 310 309 311 312 312 313 312 312 313 313 313 312 313 313 314 314 314 314 314 313 315 314 315 314 315 314 314 313
326 327 326 325 325 325 325 324 324 324 323 322 321 320 315 319 319 310 309 311 312 311 311 311 311 312 311 311 312 312 312 310 312 314 313 313 312 310 315 314 313 313 312 312 311
327 327 326 326 326 325 324 324 323 323 322 322 320 315 315 321 318 316 312 311 311 311 310 311 311 311 311 311 311 311 310 310 311 311 312 312 312 312 313 313 312 312 310 311 310
326 325 326 325 325 324 324 323 323 323 321 321 320 314 317 318 316 316 314 309 311 312 311 310 310 310 310 308 308 309 309 310 310 310 309 310 309 310 310 310 311 310 309 308 307
325 325 325 324 323 324 322 323 322 321 321 320 317 312 318 316 317 312 311 312 310 311 310 310 309 308 307 307 311 311 310 310 311 311 308 309 310 308 310 311 310 309 308 307 306
323 324 324 324 324 321 322 322 322 315 314 319 318 318 318 313 311 311 311 311 310 310 308 309 307 307 308 308 310 309 309 308 308 309 308 307 308 308 309 310 308 308 307 307 306
323 324 323 323 323 322 322 322 321 315 311 318 318 313 317 317 315 311 311 310 309 307 308 308 308 308 309 310 308 309 309 308 307 308 307 305 306 304 307 309 308 307 307 306 305
316 320 322 322 322 321 322 322 320 308 308 314 319 320 320 317 315 314 310 309 308 307 307 307 310 310 310 309 309 308 308 308 307 306 306 305 304 305 309 308 307 307 306 305 305
315 315 316 320 319 319 320 321 321 313 317 320 318 319 318 317 313 316 313 309 307 307 307 307 309 309 308 307 307 307 307 307 306 305 305 303 302 306 309 308 307 306 305 305 305
312 315 314 317 319 319 320 321 320 316 324 319 319 316 319 316 314 312 313 309 306 307 307 308 307 307 307 308 307 306 306 305 305 303 302 303 301 301 308 307 306 305 305 305 305
312 314 315 317 318 318 319 320 317 318 321 320 310 310 315 314 312 309 311 309 308 307 307 307 307 306 306 305 304 304 304 304 302 301 301 302 301 302 309 308 306 305 305 305 304
309 313 313 315 316 317 319 316 317 319 318 319 309 310 312 312 313 307 306 305 305 306 306 306 306 305 305 305 305 304 303 302 304 303 303 305 303 308 308 307 306 304 304 304 304
305 310 312 312 315 316 315 314 317 316 318 318 311 309 311 312 312 308 305 305 304 306 305 305 307 304 304 304 304 303 303 304 307 307 306 306 311 310 307 306 306 306 304 304 304
304 307 310 311 313 314 313 317 317 316 317 318 311 311 309 312 310 307 305 305 306 306 306 307 307 304 304 305 304 304 304 304 305 304 303 307 310 309 307 306 305 304 304 303 303
304 306 307 310 311 309 312 314 316 314 316 317 319 312 310 310 309 308 306 307 307 306 307 308 306 304 304 304 303 304 303 304 303 305 306 304 310 309 309 307 305 303 303 302 302
303 306 306 307 310 306 309 308 313 312 315 317 318 315 311 310 310 309 307 308 307 307 306 306 306 305 304 303 303 302 302 303 304 305 308 307 307 307 309 307 305 304 303 302 301
302 304 305 307 303 300 306 309 310 313 314 315 316 316 317 313 310 308 308 308 308 306 306 306 306 305 305 304 303 303 304 303 300 302 302 302 304 306 304 304 304 303 302 300 299
302 303 304 304 307 304 305 308 309 311 313 316 317 314 313 316 310 309 308 307 306 304 305 304 304 304 304 303 304 303 303 305 303 303 306 303 305 306 305 304 303 302 300 299 299
301 299 300 301 301 305 305 308 310 309 311 313 314 314 315 312 312 309 307 305 304 305 306 305 304 305 306 305 303 303 303 306 306 304 305 305 304 306 304 303 302 300 299 299 298
300 300 300 299 300 303 305 307 309 311 312 312 313 313 313 312 311 308 306 304 303 304 303 303 303 303 303 303 304 303 304 303 305 304 305 304 305 305 305 303 301 300 299 298 297
299 300 299 298 302 302 304 307 308 308 309 313 310 311 308 310 310 310 306 304 303 302 302 301 301 303 303 304 304 304 303 302 303 304 305 304 304 303 302 301 300 299 298 297 296
299 300 301 300 299 302 304 305 308 310 311 310 309 308 309 308 307 308 305 304 303 301 301 301 303 303 303 304 304 303 303 302 303 302 302 302 303 300 300 300 299 299 297 296 295
Wind_Speed
9 8 8 8 9 9 10 12 14 15 17 18 18 19 19 21 20 21 13 4 6 10 7 1 3 3 3 4 3 3 3 1 3 4 2 11 8 16 8 17 24 12 18 14 12
12 10 10 10 11 11 12 12 14 16 18 19 20 20 21 21 23 11 3 3 6 4 2 1 3 6 2 2 2 2 3 6 6 2 3 4 6 6 7 14 9 17 15 13 14
14 13 11 12 12 13 14 15 16 16 18 19 21 21 21 21 18 4 7 6 5 5 2 2 3 5 3 3 2 2 4 4 3 3 6 5 1 2 2 4 5 11 13 16 19
16 15 13 13 14 14 15 16 18 19 20 21 22 21 19 17 6 2 8 8 7 4 1 1 5 3 3 3 3 4 13 11 7 2 3 3 4 2 3 3 12 10 15 23 23
18 18 16 15 15 14 14 16 18 20 20 22 22 21 18 9 14 12 4 5 5 4 3 3 8 2 1 4 10 4 5 12 9 4 2 3 1 4 3 16 10 12 21 25 24
22 21 19 17 16 15 14 17 18 18 17 18 20 19 16 9 6 6 6 6 4 5 6 4 6 5 4 3 1 10 8 7 8 11 7 5 0 5 12 13 11 22 26 25 25
23 23 22 19 17 16 15 18 18 16 15 17 18 20 19 23 11 4 5 6 5 6 6 5 4 5 2 4 8 9 6 8 7 8 3 2 5 4 17 12 28 29 26 26 25
25 26 23 21 18 16 14 15 16 16 15 16 16 18 13 16 13 15 10 9 7 4 5 6 5 6 4 6 6 3 3 3 6 7 6 6 3 3 5 11 28 29 26 25 26
22 23 23 21 20 11 13 13 14 16 16 18 14 10 14 7 7 6 14 9 9 8 6 4 4 3 3 3 5 3 3 4 7 2 5 3 5 5 4 13 21 24 23 23 23
24 22 22 16 13 13 15 15 13 18 18 17 13 6 8 6 7 4 2 14 9 10 5 6 2 1 2 3 4 3 3 1 2 2 4 3 4 2 13 30 23 21 22 23 24
25 24 23 21 17 16 15 13 11 7 8 10 5 7 7 4 4 7 6 7 9 10 5 5 3 5 9 8 4 5 1 1 3 2 5 3 3 3 14 26 21 21 21 21 21
22 24 23 24 19 19 17 11 10 8 11 19 24 27 25 22 11 11 13 10 6 5 3 1 6 12 7 6 8 1 1 5 4 4 3 2 2 9 7 10 16 21 20 19 18
26 26 22 20 20 24 24 19 12 4 6 10 25 24 30 26 18 20 15 14 5 4 5 6 6 7 9 7 3 4 3 2 2 4 2 2 3 5 7 17 15 16 17 18 19
21 23 23 20 21 24 24 16 16 4 3 6 9 10 17 15 9 30 23 15 6 9 5 6 14 11 4 5 5 2 3 3 2 4 4 4 4 1 9 9 10 12 14 17 18
20 19 23 26 21 19 23 20 18 7 5 5 6 4 9 21 3 10 33 21 8 6 7 7 2 6 4 3 3 3 2 2 1 2 2 4 1 4 8 6 5 8 13 14 14
25 24 21 24 28 23 20 19 16 3 9 5 6 5 9 20 3 2 18 13 10 4 3 6 1 4 4 2 5 5 3 1 4 3 3 10 8 3 3 7 6 10 10 10 11
23 27 22 23 28 27 21 24 4 7 3 6 5 6 10 9 10 6 8 7 7 5 5 2 4 2 7 4 2 4 5 3 3 0 6 3 5 1 3 7 11 10 8 9 9
21 23 18 30 29 27 31 3 10 12 15 1 6 6 10 7 9 7 7 10 6 5 3 6 2 8 5 6 7 5 7 5 6 3 4 3 5 4 4 14 14 10 7 7 6
16 21 19 30 28 32 26 13 11 15 11 9 5 5 7 10 7 6 8 7 8 11 9 7 5 4 4 3 7 4 4 5 4 2 1 3 3 3 4 5 11 10 8 6 5
15 14 26 24 28 35 14 17 15 20 5 6 12 12 11 12 9 13 10 7 7 13 8 3 3 3 2 7 5 5 4 3 2 3 4 4 5 4 12 9 6 8 9 6 6
15 8 15 27 24 20 6 5 23 18 13 6 4 14 8 8 14 10 12 3 14 10 16 6 4 2 4 5 7 2 1 1 3 4 5 2 4 4 13 11 9 10 9 6 6
18 4 12 25 8 4 5 7 12 11 19 7 2 6 5 6 8 13 12 9 16 11 15 5 5 5 6 6 8 6 7 7 4 5 2 4 5 2 7 14 15 11 9 7 5
10 15 23 35 8 5 8 15 11 10 12 11 4 8 5 15 13 11 8 2 20 7 11 7 3 2 4 5 2 5 6 5 5 3 6 5 4 5 11 12 11 11 9 5 5
13 3 6 13 7 8 7 14 7 15 16 8 5 10 8 6 6 3 2 4 3 3 11 11 4 8 11 3 4 5 5 6 6 4 5 5 5 6 8 8 11 12 6 3 4
14 6 8 5 7 11 10 5 20 10 6 17 12 12 10 1 4 2 4 3 7 2 4 4 6 4 3 3 1 4 5 9 9 7 7 7 11 12 13 10 17 11 8 5 3
8 4 7 9 21 16 12 16 15 21 21 8 9 11 9 12 11 7 8 5 6 1 2 2 3 3 1 3 4 7 7 9 11 6 9 6 3 5 19 20 16 14 9 6 3
25 18 2 9 7 11 16 21 21 16 15 19 6 6 11 4 9 16 18 16 12 9 4 5 5 3 3 2 2 10 8 9 6 5 7 6 6 13 11 13 17 14 11 8 4
Wind_Direction
276 285 293 301 307 313 322 330 337 339 340 339 338 338 338 338 337 330 309 277 314 319 322 120 98 27 325 290 282 239 66 266 262 77 293 18 35 13 31 51 68 79 77 79 78
275 281 289 296 302 307 313 321 327 332 334 333 332 333 335 335 335 352 12 17 343 350 112 247 18 5 304 276 278 131 144 216 202 136 136 61 59 11 20 33 55 70 67 68 73
272 275 282 290 296 302 308 315 321 327 327 326 324 327 331 332 329 39 35 37 49 52 45 51 22 341 302 287 271 253 218 232 249 117 139 130 81 30 25 58 99 92 80 79 81
270 273 276 280 288 297 307 313 318 323 325 323 323 325 329 328 307 299 310 307 309 321 283 154 354 317 317 303 309 313 284 270 244 212 165 172 161 203 218 180 118 95 87 94 86
270 271 274 277 281 289 299 308 313 315 320 321 324 325 333 316 281 302 288 282 285 274 197 1 327 338 279 310 329 193 340 330 326 325 357 300 305 196 232 143 121 103 105 91 87
265 270 271 270 275 281 289 300 304 306 314 318 320 320 327 294 305 295 305 296 262 205 156 331 295 294 282 294 355 317 315 303 301 297 303 299 211 123 139 143 119 107 99 90 80
259 266 266 264 263 269 287 301 304 300 308 310 313 314 308 283 273 215 250 299 270 169 290 294 323 255 290 304 332 313 329 337 282 261 222 209 336 184 157 153 102 104 97 88 75
259 259 260 262 257 264 279 300 304 298 301 304 310 307 283 299 254 259 239 255 235 227 256 279 304 299 279 301 339 345 33 352 290 142 191 160 255 61 139 163 104 98 92 85 71
249 250 255 259 252 266 281 288 293 291 296 294 298 293 277 282 263 255 233 224 229 242 248 245 298 257 304 73 3 358 233 203 305 51 114 123 209 211 26 129 103 102 98 88 77
241 240 245 228 228 244 287 296 288 291 288 280 261 285 270 313 267 281 252 216 227 234 222 228 232 91 39 96 219 223 235 323 224 193 61 142 225 41 106 125 107 101 94 85 74
242 236 225 231 237 239 261 287 287 281 251 223 272 235 268 356 259 216 184 217 224 183 163 202 84 229 218 205 243 249 241 257 275 266 164 204 214 270 115 112 117 113 101 92 77
229 227 230 228 232 240 241 243 228 275 294 260 253 256 256 253 287 250 219 199 200 220 157 11 232 235 243 242 194 220 271 290 287 52 109 144 237 268 119 104 116 116 107 100 87
234 233 225 232 235 234 234 233 233 270 271 270 253 238 239 237 236 236 205 207 182 211 211 194 223 215 213 225 204 230 187 226 222 333 64 171 190 159 75 95 90 91 94 82 74
238 236 233 229 233 226 228 222 223 251 281 262 212 239 205 203 249 227 218 204 209 202 206 227 253 224 204 182 157 243 135 116 77 67 240 52 283 241 141 107 90 88 77 70 65
242 231 234 222 235 216 231 215 213 168 274 221 190 157 184 173 173 217 213 202 184 197 130 232 336 155 177 181 130 181 105 106 170 131 69 200 251 287 125 122 133 110 80 69 50
230 217 227 217 233 228 225 207 164 160 244 274 148 174 135 191 222 151 176 195 201 207 246 223 221 160 137 96 104 153 108 21 46 110 278 208 175 217 249 166 139 97 88 63 43
240 237 216 235 225 221 214 165 157 229 179 203 194 172 178 174 199 188 171 166 159 155 252 359 190 158 138 103 31 103 75 338 322 269 230 186 162 303 77 122 135 138 98 77 48
243 236 210 235 228 222 189 150 216 197 217 189 153 153 191 152 207 208 150 180 210 125 142 181 261 160 189 185 180 181 157 165 232 217 273 334 170 221 154 131 145 135 111 98 62
247 228 230 221 224 200 190 211 193 223 193 217 125 168 215 196 173 162 197 196 186 174 177 176 224 68 32 134 129 205 164 172 121 301 333 164 91 341 180 168 164 155 147 118 71
235 233 228 225 221 195 203 223 220 232 251 257 222 219 192 199 185 181 174 193 196 194 196 208 102 116 137 97 50 135 160 73 18 215 235 269 181 216 195 193 165 171 147 107 68
228 215 229 223 214 189 227 219 233 254 238 228 250 198 206 184 203 190 192 225 188 176 177 157 121 184 118 196 165 124 144 148 143 155 201 240 253 217 186 177 170 153 131 102 57
218 202 192 189 174 218 216 217 209 262 246 262 271 212 230 258 201 197 194 197 176 151 173 178 143 179 195 206 180 175 182 160 138 236 221 149 257 94 130 151 146 130 120 105 81
216 203 179 181 210 204 224 238 242 239 241 214 251 223 237 207 226 180 192 270 164 144 157 173 179 93 20 11 317 198 196 160 119 93 187 158 243 172 135 143 146 131 135 113 42
209 162 175 190 171 217 203 224 227 234 256 246 210 277 279 319 17 110 109 32 4 85 147 125 144 191 215 167 152 181 188 168 148 151 190 214 175 194 170 168 154 152 137 90 59
215 210 181 169 195 195 182 212 219 235 231 234 222 218 226 256 224 92 55 58 13 105 70 110 158 151 164 157 343 213 212 207 199 195 181 197 215 199 181 171 166 157 142 128 59
190 179 206 186 205 195 203 219 218 221 228 237 233 211 197 185 185 188 166 178 184 201 90 12 169 101 232 200 229 254 230 226 230 214 224 205 208 141 149 156 160 158 145 127 92
218 236 242 189 158 185 212 217 211 219 226 221 293 229 240 223 192 185 178 159 161 148 141 118 123 103 259 187 350 278 204 217 211 188 172 181 185 148 150 164 164 152 142 130 108